Theta_e
314 310 313 315 301 301 296 300 306 305 307 312 314 311 309 312 308 305 334 337 337 338 343 349 347 350 350 350 351 351 350 350 348 345 343 343 343 342 342 344 345 345 344 341 340 337 340 342 342
309 310 313 307 295 291 294 302 301 306 310 313 313 312 310 308 316 320 330 331 336 339 341 348 344 348 349 350 350 350 350 349 349 347 345 344 344 344 343 345 346 345 345 341 339 342 343 342 342
308 312 306 299 296 292 293 299 301 306 310 310 310 313 313 311 323 320 321 331 337 338 341 347 343 347 349 349 350 350 349 349 349 348 346 344 343 344 344 343 343 345 344 342 343 343 341 339 341
307 308 305 296 292 296 298 300 303 304 307 310 310 308 314 317 314 316 319 331 337 339 342 344 344 347 348 349 349 350 350 350 349 348 347 345 345 344 343 343 343 343 344 341 342 341 340 338 339
306 303 294 292 292 296 298 300 303 302 304 306 310 306 308 316 316 315 317 328 336 338 342 345 342 345 346 348 348 349 349 349 348 348 348 347 345 343 341 342 342 342 342 342 341 340 338 338 338
296 300 290 288 291 295 298 300 300 300 302 304 304 305 309 319 311 311 315 320 336 339 341 345 337 341 343 346 346 347 347 348 347 347 347 346 344 342 341 340 341 341 341 340 339 339 339 339 339
293 292 288 289 290 292 295 299 297 297 299 300 304 299 306 313 310 311 312 317 323 324 337 344 343 340 336 339 341 343 345 345 345 345 345 342 341 340 339 336 339 341 340 336 338 339 340 340 339
295 293 288 289 288 289 295 296 298 296 295 302 303 297 299 308 308 310 312 313 316 314 318 320 342 343 342 343 334 336 340 341 340 340 338 335 335 335 334 332 336 340 340 339 339 338 340 339 339
297 287 285 287 288 289 294 292 296 298 295 297 297 298 302 305 305 308 308 310 312 313 313 316 317 333 343 341 338 332 333 334 334 335 330 330 337 334 332 330 332 337 338 338 338 338 338 336 335
292 287 287 291 291 290 292 292 292 292 292 293 295 299 301 301 302 301 302 304 308 310 312 314 314 319 331 340 342 343 343 341 340 341 337 337 335 334 331 326 327 331 333 336 337 337 334 330 333
291 286 290 291 292 292 291 291 293 290 288 292 292 295 297 298 298 298 299 302 305 308 311 313 314 314 319 335 340 341 341 338 339 340 338 336 334 332 331 330 328 330 327 333 335 334 333 332 333
287 290 290 291 292 291 289 292 290 290 291 294 295 296 296 296 296 297 298 300 303 304 308 313 315 312 313 314 336 340 337 338 338 339 338 336 334 332 329 328 327 330 331 330 335 336 333 329 331
288 289 291 291 291 290 291 289 289 290 294 295 295 295 295 295 296 298 299 300 303 303 307 309 316 314 312 315 318 336 338 336 337 338 338 335 334 331 330 327 327 329 330 330 331 331 329 329 328
290 289 289 290 290 290 288 289 290 291 295 294 294 294 295 295 296 297 298 299 300 303 307 308 314 318 315 314 314 322 337 336 336 335 337 336 333 331 329 327 326 328 331 333 332 329 329 329 327
290 285 287 288 289 289 291 285 287 292 294 293 293 294 295 296 297 296 298 298 300 301 305 307 311 318 316 314 316 318 334 336 333 335 335 335 333 331 328 328 326 327 331 332 329 329 329 329 326
286 286 281 288 289 289 288 281 289 294 293 292 293 294 294 296 297 298 299 299 301 302 303 305 308 312 317 319 320 326 331 333 333 334 332 334 331 331 329 326 325 326 329 330 330 327 326 326 324
286 279 281 283 289 288 286 283 289 293 292 291 292 293 294 295 296 298 299 300 301 302 303 305 310 310 313 318 325 329 330 332 332 332 330 330 329 330 328 326 325 325 328 328 327 327 326 323 323
278 278 280 280 286 287 284 284 288 291 291 291 292 293 293 294 295 298 299 300 301 302 303 304 306 310 312 324 328 329 329 328 330 329 328 329 328 327 328 326 325 325 326 326 326 323 325 325 322
281 280 279 283 286 284 284 284 286 290 289 288 290 292 293 294 297 298 299 300 301 302 302 303 305 310 313 325 325 324 323 325 324 326 327 326 326 326 327 324 323 324 324 324 324 324 323 321 323
281 279 278 282 285 283 282 282 286 287 286 287 286 287 289 291 294 297 298 299 300 300 302 303 304 311 319 324 325 325 324 325 324 325 325 325 325 326 325 324 322 323 324 324 322 322 319 319 320
279 277 277 276 280 281 280 278 282 285 286 285 285 286 287 287 289 293 296 297 299 300 302 303 305 314 321 327 327 324 325 322 321 321 322 323 325 325 325 324 324 323 324 323 322 321 319 315 315
275 281 278 276 274 272 281 273 277 280 279 280 281 282 284 286 288 291 294 297 298 300 303 304 307 319 324 327 324 322 320 318 320 321 322 322 324 323 324 323 324 323 323 323 322 322 321 320 316
277 280 278 277 274 274 276 274 273 277 274 275 278 280 282 284 287 289 293 296 298 301 302 304 309 319 324 327 325 323 322 322 322 321 320 321 322 322 322 323 323 322 322 323 322 322 321 321 319
281 278 280 281 278 272 277 275 271 271 272 274 276 276 279 291 290 291 294 296 298 301 302 305 313 313 311 313 315 309 303 311 316 319 319 319 320 318 317 320 320 319 319 318 315 308 304 305 301
279 275 273 272 272 270 278 274 271 273 274 274 273 274 285 293 292 293 295 296 297 299 305 308 305 301 303 302 301 302 299 298 297 298 298 299 297 296 297 298 297 297 297 296 295 294 293 293 292
276 274 268 265 267 270 276 269 273 275 275 274 273 275 283 287 290 294 297 301 304 303 302 301 299 297 296 296 295 295 296 294 294 294 293 293 293 293 294 293 293 293 292 292 291 290 289 289 288
274 271 276 270 272 270 272 273 278 274 271 271 271 274 277 282 286 288 291 293 294 296 297 296 294 292 293 293 293 293 292 291 290 290 291 290 291 290 290 290 289 289 289 288 287 286 285 285 284
276 277 270 273 266 267 271 269 264 266 267 269 269 272 276 280 283 285 287 288 289 290 292 292 291 288 289 289 289 289 288 288 288 287 286 286 286 288 286 285 285 285 285 284 284 283 282 281 281
273 271 273 272 271 267 267 267 269 267 268 268 270 272 274 277 280 283 285 286 285 286 287 287 286 285 285 286 286 286 286 286 285 284 284 283 284 284 283 282 282 281 281 281 281 280 280 279 279
276 271 272 270 267 269 269 268 272 270 270 270 269 271 274 276 278 281 282 283 282 283 282 282 283 282 283 283 283 283 283 283 282 281 281 281 280 281 280 280 280 279 279 279 279 278 278 278 277
Wind_Speed
16 7 5 5 8 10 19 20 17 14 19 13 10 8 8 14 8 3 8 12 13 9 10 19 18 20 21 19 20 21 21 21 21 21 20 19 19 19 18 16 15 14 15 15 14 14 12 10 9
9 6 5 7 10 17 17 20 21 15 16 3 6 9 12 14 11 0 2 16 12 10 9 19 17 19 19 19 19 21 22 22 21 21 20 19 18 18 17 16 15 14 17 15 16 14 14 12 9
7 6 7 6 15 21 20 19 15 16 14 17 14 9 11 5 13 7 13 13 11 8 9 15 19 19 19 19 19 21 21 21 22 21 21 20 19 16 16 13 11 12 13 17 14 15 13 12 10
4 6 6 11 23 20 16 12 10 8 11 8 13 13 11 10 5 11 14 12 10 5 7 12 20 19 20 19 20 21 22 22 21 20 20 21 20 17 14 13 12 11 13 14 16 14 13 11 10
6 5 11 17 23 22 19 10 16 11 12 9 7 16 10 8 9 13 15 15 11 8 5 11 19 20 19 20 20 20 21 21 21 21 20 20 19 17 15 14 13 11 12 12 13 14 13 11 10
7 5 13 17 22 20 13 5 11 14 18 18 12 14 17 11 13 14 15 14 13 8 3 9 14 17 19 19 20 20 20 20 20 20 20 20 18 18 15 14 13 13 12 14 14 13 12 12 10
12 12 19 24 24 22 18 2 8 16 16 13 11 10 9 6 13 13 14 12 12 16 9 10 12 15 15 16 18 20 20 20 20 19 18 17 17 17 16 16 13 13 13 16 14 13 12 12 10
8 7 20 19 18 24 8 4 6 11 15 11 9 8 10 11 16 14 13 12 9 11 9 16 12 15 15 18 14 15 18 18 16 15 14 14 13 13 13 10 11 12 12 12 14 12 11 11 7
3 8 14 19 21 21 15 9 11 9 14 16 19 20 18 17 17 17 15 14 10 9 8 8 8 12 16 15 16 13 14 13 13 13 13 13 11 11 11 10 12 11 13 11 11 11 11 8 6
7 10 15 14 12 15 15 16 15 17 18 21 18 18 19 19 14 14 17 15 14 13 9 6 8 10 11 13 15 17 15 12 12 14 15 12 11 11 10 8 8 8 10 12 11 11 9 7 8
6 12 15 16 14 15 18 20 17 19 23 21 22 17 15 16 15 17 18 17 15 13 9 3 6 7 10 10 9 9 8 8 10 16 15 14 9 8 8 6 4 5 7 6 9 9 8 10 6
11 15 16 17 17 17 20 19 22 21 26 21 22 22 22 22 19 17 17 19 15 15 11 5 2 6 10 8 6 10 8 9 9 12 16 11 8 10 9 6 6 5 4 6 7 6 8 9 7
17 18 19 17 17 19 20 23 25 25 23 23 23 24 24 23 21 18 18 18 16 14 12 7 4 4 6 8 10 9 11 9 11 12 15 11 10 9 10 8 7 5 5 6 5 5 5 4 6
11 16 18 18 20 22 23 24 23 21 21 21 22 24 22 22 20 19 17 17 17 13 11 4 5 6 6 7 10 9 11 9 9 7 12 14 10 10 10 10 8 7 5 5 3 3 5 5 6
11 18 20 20 20 17 17 18 22 22 18 17 17 18 19 20 18 18 16 16 15 14 10 5 6 7 9 9 7 9 8 11 9 11 14 14 13 13 13 10 9 8 5 6 3 4 6 5 4
18 19 15 6 8 14 12 20 21 15 12 15 17 16 17 18 18 15 13 13 14 14 12 10 6 7 7 8 7 9 11 8 10 9 10 14 13 12 12 10 9 9 7 5 5 3 4 3 3
9 10 16 22 17 17 11 17 15 15 19 21 20 21 18 18 16 13 13 11 14 14 12 11 5 7 8 10 8 10 10 11 9 7 9 12 13 13 10 9 9 9 6 5 5 5 5 4 5
17 20 21 22 19 16 16 22 22 17 19 19 16 16 17 16 17 13 12 11 14 13 12 12 8 8 10 5 6 5 3 1 3 4 6 10 9 12 10 8 9 8 7 5 6 4 5 4 5
16 19 24 24 23 14 15 16 17 14 13 15 17 16 14 15 16 15 13 11 14 12 13 13 11 10 7 7 4 4 5 5 4 1 3 9 5 10 10 8 8 8 8 7 6 6 6 4 3
22 25 23 24 16 9 14 20 17 2 4 12 15 15 15 15 18 13 13 11 13 11 12 13 12 13 9 6 4 3 3 3 5 6 6 8 6 6 9 8 8 8 6 7 8 7 2 3 4
21 24 17 21 23 26 19 20 3 5 10 18 17 17 16 16 15 15 14 12 13 11 11 11 12 13 9 8 6 4 7 5 4 6 5 6 6 7 8 9 8 7 7 6 8 7 8 4 2
20 18 25 25 14 6 4 2 13 13 19 21 22 22 21 19 16 14 14 12 12 10 9 10 12 10 10 8 7 11 8 8 6 9 7 9 9 7 8 8 8 6 6 8 6 7 7 8 7
16 28 24 21 14 10 15 6 10 16 26 30 30 28 25 22 16 15 13 11 12 10 8 9 11 11 9 11 10 8 7 5 5 5 9 9 10 9 6 5 8 7 7 7 8 7 7 5 7
27 22 14 6 5 4 11 4 12 15 22 28 30 31 33 13 5 10 12 12 12 10 9 7 8 10 14 12 14 11 13 10 4 5 7 6 6 5 4 5 3 1 0 2 5 11 12 10 10
21 19 4 2 4 6 10 8 9 21 21 23 27 29 25 19 7 5 6 6 5 5 5 14 11 13 14 17 18 14 14 17 15 13 12 10 8 10 13 13 14 12 12 16 15 15 14 14 11
15 12 6 7 6 6 9 8 5 23 20 21 20 21 25 23 20 19 18 16 14 15 16 16 12 17 19 19 19 16 17 13 13 16 13 11 11 12 15 15 17 18 17 17 16 14 13 14 14
12 10 10 6 7 4 4 7 8 28 25 27 28 29 27 23 19 18 17 15 16 16 18 14 14 21 20 21 18 18 16 20 19 18 16 12 12 13 17 19 19 20 16 17 15 14 14 15 12
8 10 4 4 8 6 6 6 10 26 26 27 30 28 25 23 22 19 17 16 15 16 14 13 20 25 21 20 18 16 18 18 23 18 20 16 15 16 18 19 18 20 19 18 17 16 15 15 12
13 8 6 3 5 6 6 4 8 17 18 20 21 22 22 22 20 18 15 15 16 13 13 16 22 29 21 19 19 17 19 20 22 21 18 18 16 19 25 19 18 19 21 18 17 18 15 17 13
20 12 6 5 5 4 5 5 11 16 15 16 18 21 21 21 20 18 17 17 15 12 15 22 23 24 19 18 18 20 20 22 25 22 22 19 21 20 20 19 20 19 18 17 18 17 15 16 15
Wind_Direction
301 289 257 212 230 232 251 236 253 243 252 266 254 256 249 247 228 253 83 20 356 316 200 172 178 175 174 171 171 163 162 161 163 161 161 160 156 158 159 160 162 164 157 145 157 153 161 134 128
304 278 224 245 241 239 244 236 246 240 247 195 276 242 252 245 243 304 92 351 329 313 230 176 177 179 176 172 171 166 166 164 165 164 164 163 165 161 163 167 165 169 160 151 155 150 138 128 120
277 247 239 227 236 247 266 268 290 224 233 261 239 247 277 265 65 31 358 336 330 301 235 178 166 180 177 172 172 169 169 169 166 167 166 167 169 165 165 157 158 153 151 157 153 144 136 133 129
273 193 246 246 251 259 276 302 324 298 251 272 271 267 243 62 41 5 343 352 328 303 210 160 171 180 179 171 174 174 173 173 168 168 168 171 169 166 170 163 166 163 159 162 152 146 141 142 143
232 255 246 248 256 268 275 291 294 273 262 253 209 251 248 90 33 2 354 353 344 325 189 164 176 177 182 172 174 175 175 171 168 169 174 174 167 159 170 170 167 168 169 168 154 149 150 155 160
265 278 252 255 259 265 272 313 308 285 270 265 260 275 260 112 31 0 349 2 349 319 330 171 187 177 181 178 177 176 178 175 173 177 178 172 165 161 171 176 175 171 176 175 166 161 161 161 174
256 262 260 274 276 273 284 325 270 275 272 266 334 279 267 198 22 350 339 352 2 7 328 228 189 180 179 181 184 178 180 181 177 177 172 164 159 165 170 183 180 175 186 182 173 167 171 167 177
273 279 267 267 273 268 295 343 319 283 278 301 300 259 250 297 350 324 328 331 354 6 7 5 234 192 185 189 188 187 180 181 179 170 161 157 156 164 163 173 190 182 184 177 169 168 168 168 174
277 252 260 265 269 275 276 276 279 275 270 280 280 280 285 302 316 315 321 316 327 345 10 3 4 291 194 199 190 183 187 178 174 160 155 154 166 167 167 184 184 194 178 178 166 164 159 159 171
238 248 259 283 303 296 286 277 278 275 271 272 271 264 271 285 280 300 300 302 309 318 344 11 346 312 301 206 196 196 191 186 181 179 173 176 171 167 168 182 169 183 183 174 174 166 160 169 190
228 251 276 284 279 275 276 276 277 275 271 271 276 289 303 293 294 293 287 285 291 302 311 349 344 359 311 278 208 192 187 186 188 184 178 178 165 162 165 170 181 194 174 189 183 174 193 201 201
270 259 273 285 290 280 275 283 274 268 272 281 282 285 283 280 279 279 283 287 291 297 300 317 333 331 325 344 223 184 192 181 197 186 184 179 168 166 165 165 177 186 181 214 197 189 201 207 199
272 277 283 286 286 277 279 271 274 274 281 278 276 275 276 277 275 273 273 275 282 281 288 289 235 244 288 292 322 206 181 202 190 187 186 175 167 168 162 164 173 179 199 213 195 193 186 224 228
308 302 293 288 282 280 279 278 277 272 269 271 267 269 272 272 274 273 267 273 276 279 291 297 264 238 238 271 261 301 196 187 179 207 188 173 164 175 171 160 171 179 213 212 183 209 166 209 215
299 289 288 277 271 266 286 279 258 260 264 262 263 268 270 267 268 270 266 268 280 285 292 282 270 245 249 244 284 292 222 174 162 195 186 179 172 177 176 166 170 186 199 207 171 215 190 202 215
270 268 279 261 261 296 243 279 284 286 283 286 286 275 275 271 266 266 267 264 280 281 281 288 247 254 236 265 259 268 267 191 173 209 166 180 176 172 176 170 168 174 199 206 195 195 184 212 206
281 284 303 297 296 289 252 285 293 302 295 291 279 274 274 274 270 264 255 260 277 273 279 284 233 241 240 233 236 236 247 190 187 185 168 180 170 174 180 168 168 169 180 205 195 199 192 202 217
311 302 298 296 307 290 275 277 285 300 290 290 289 284 281 274 268 243 267 288 279 279 276 277 269 235 244 236 243 239 145 265 153 202 152 167 176 167 188 171 167 170 187 180 194 196 195 218 214
301 290 286 287 294 289 272 276 290 329 15 5 355 338 312 285 277 270 276 281 272 271 272 270 272 252 227 208 200 252 173 180 122 87 180 139 166 164 189 165 172 173 196 185 199 199 210 190 240
316 304 295 292 322 315 291 287 299 95 46 27 360 347 334 321 325 287 274 268 265 266 267 272 277 264 220 217 199 158 175 158 155 143 149 137 158 200 181 177 179 188 196 199 180 204 169 208 183
323 305 316 318 317 304 284 277 200 3 29 2 349 340 331 319 306 298 295 278 266 256 258 273 289 259 230 210 156 154 158 134 130 144 151 146 154 209 193 191 184 186 200 208 198 190 200 188 179
314 335 311 301 298 270 2 57 40 13 359 351 348 341 329 314 298 284 277 276 265 253 261 279 282 240 214 168 158 175 175 170 172 177 172 173 168 192 211 198 196 187 207 216 210 198 206 218 222
307 319 305 287 263 265 254 231 22 17 358 350 346 339 325 307 280 273 271 271 272 274 264 276 282 251 205 167 150 184 181 174 149 153 181 175 179 170 156 178 194 206 214 212 218 211 224 234 243
337 321 296 277 185 170 28 256 39 15 353 343 340 335 326 342 274 270 267 260 252 252 251 269 39 50 64 64 77 74 67 44 77 147 176 175 175 131 99 171 186 269 207 83 41 52 48 59 62
345 347 342 69 43 34 358 67 64 12 358 350 336 328 333 6 8 311 276 247 232 260 355 68 65 64 66 69 69 67 73 74 56 53 53 52 53 57 53 66 63 63 60 67 67 65 54 56 65
346 1 12 342 2 344 31 11 88 13 355 348 338 336 360 3 9 14 13 19 58 65 69 71 73 74 66 69 65 62 61 74 67 67 62 56 64 61 71 68 69 69 67 68 73 69 66 55 56
333 8 313 287 219 263 29 9 148 349 351 349 354 357 357 359 6 12 14 32 43 51 62 76 87 76 67 71 73 71 74 74 70 65 66 61 56 74 69 66 64 63 66 72 63 65 62 61 58
10 1 15 329 350 20 71 60 341 346 343 345 351 349 349 354 5 14 17 31 37 48 65 81 74 70 59 62 66 71 71 72 74 64 61 56 56 62 76 61 63 61 59 61 68 64 62 66 58
13 21 351 259 11 334 327 53 5 348 345 343 342 345 349 354 2 12 17 32 40 48 56 69 68 67 60 61 63 65 68 73 76 68 62 59 62 57 60 61 63 65 60 60 66 65 63 66 67
37 13 356 336 8 21 272 69 32 6 353 352 347 350 352 358 5 14 17 33 39 41 57 61 63 72 66 68 70 68 70 69 71 68 63 54 60 62 66 65 65 66 66 64 66 67 61 59 54